Tracking 35331 objects as of 17-Sep-2026
HD Live streaming from Space Station
objects crossing your sky now

STARLINK-35556

Track STARLINK-35556 now!
10-day predictions
STARLINK-35556 is classified as:


NORAD ID: 66238
Int'l Code: 2025-245E
Launch date: October 29, 2025
Source: United States (US)
Launch site: AIR FORCE EASTERN TEST RANGE (AFETR)
Your satellite tracking list
Your tracking list is empty




NASA's NSSDC Master Catalog

Two Line Element Set (TLE):
1 66238U 25245E   26258.03492996  .00033296  00000-0  99164-3 0  9993
2 66238  53.1568 119.6191 0001062 224.7947 135.2970 15.34418190 50319
Source of the keplerian elements: AFSPC